[[{"header":{"parameterUnit":"m.s-1","parameterCategory":1,"la1":30.2991,"la2":30.254,"lo1":-89.0895,"lo2":-89.0444,"dy":0.0017,"dx":0.0017,"nx":28,"ny":28,"refTime":"2023-10-09T09:00:00:Z","depth":0,"parameterNumber":2,"parameterNumberName":"U-component_of_WINDS"},"data":[0,0,0,0,0,0,0,0,0,0,0,0,0,0,0,0,0,0,0,0,0,0,0,0,0,0,0,0,0,0,0,0,0,0,0,0,0,0,0,0,0,0,0,0,0,0,0,0,0,0,0,0,0,0,0,0,0,0,2.844,2.8439,0,2.8387,2.8386,2.8386,2.8286,2.8284,2.8282,2.828,2.8226,2.8226,2.8227,0,0,0,0,0,0,0,0,0,0,0,0,0,2.8452,2.8452,2.844,2.8439,2.8439,2.8387,2.8386,2.8386,2.8286,2.8284,2.8282,2.8279,2.8226,2.8226,2.8227,0,0,0,0,0,0,0,0,0,0,0,0,0,2.8428,2.8452,2.844,2.8383,2.8377,2.8387,2.8386,2.8385,2.8287,2.8284,2.8281,2.8278,2.8226,2.8226,2.8227,2.8288,0,0,2.8229,2.8229,0,0,0,0,0,0,0,0,2.8429,2.8427,2.8392,2.8387,2.838,2.834,2.837,2.8353,2.8288,2.8321,2.828,2.8277,2.8266,2.8263,2.826,2.8286,2.8283,2.8229,2.8229,2.8229,2.8229,0,0,0,0,0,0,0,2.8431,2.8429,2.8419,2.8391,2.8384,2.8359,2.8352,2.8367,2.8311,2.8318,2.8311,2.8306,2.8263,2.826,2.8258,2.8283,2.8229,2.8229,2.8229,2.823,2.835,2.8353,0,0,0,0,0,0,2.8441,2.8431,2.8421,2.8417,2.8398,2.8361,2.8354,2.8356,2.831,2.83,2.8308,2.8301,2.826,2.8257,2.8256,2.8319,2.8229,2.823,2.823,2.8347,2.8351,2.8354,0,0,0,0,0,0,2.8442,2.8441,2.8423,2.8422,2.8418,2.8364,2.8367,2.8356,2.8353,2.8303,2.8292,2.8315,2.8258,2.8255,2.8279,2.8316,2.823,2.823,2.8344,2.8348,2.8352,2.8452,0,0,0,0,0,0,2.8443,2.8442,2.8466,2.8423,2.8418,2.8449,2.837,2.8358,2.8354,2.8345,2.8307,2.8298,2.8255,2.8279,2.828,2.8316,2.8231,2.834,2.8346,2.8351,2.8445,2.8459,2.8471,0,0,0,0,0,2.8444,2.8497,2.8468,2.8467,2.8447,2.8451,2.8448,2.8398,2.8358,2.838,2.8347,2.8299,2.8313,2.8283,2.8283,2.8319,2.8338,2.8344,2.8351,2.8439,2.8456,2.8471,0,0,0,0,0,0,2.8546,2.8491,2.8457,2.8499,2.848,2.8434,2.8461,2.8419,2.8411,2.8402,2.8341,2.8333,2.8365,2.8345,2.8312,2.8373,2.8317,2.8324,2.8385,2.84,2.8413,2.8416,2.8231,0,0,0,0,0,2.8574,2.8582,2.8533,2.8575,2.8567,2.8516,2.8516,2.8479,2.8457,2.8449,2.8418,2.8398,2.8397,2.8399,2.8396,2.8442,2.843,2.8467,2.848,2.8491,2.8497,2.8514,2.8529,2.8375,2.8375,2.8375,0,0,2.863,2.8601,2.8611,2.8594,2.8576,2.8584,2.851,2.8524,2.8528,2.8451,2.847,2.8448,2.8421,2.8456,2.847,2.844,2.8537,2.8499,2.8509,2.8508,2.8523,2.8537,2.855,2.838,2.8379,2.8378,0,0,2.8737,2.8718,2.8747,2.8729,2.8701,2.8667,2.8674,2.8634,2.8615,2.8634,2.8574,2.8579,2.8581,2.8563,2.8554,2.8651,2.8605,2.8652,2.8719,2.8737,2.8749,2.876,2.8789,2.8801,2.8659,2.8659,2.8659,0,2.8811,2.8822,2.8768,2.8784,2.8776,2.8706,2.8734,2.872,2.8693,2.8688,2.8656,2.8653,2.8632,2.8658,2.8681,2.8678,2.8682,2.8655,2.8752,2.8762,2.8771,2.8798,2.881,2.8664,2.8664,2.8663,2.8663,0,2.8911,2.892,2.8947,2.892,2.8917,2.8939,2.8887,2.889,2.8853,2.8821,2.8839,2.881,2.8797,2.8801,2.8767,2.8822,2.8804,2.8764,2.8705,2.8792,2.8816,2.8827,2.8672,2.867,2.8669,2.8667,0,0,2.908,2.9022,2.9032,2.9017,2.898,2.8985,2.9003,2.899,2.8991,2.8975,2.8985,2.8987,2.8947,2.8938,2.89,2.8917,2.8988,2.8872,2.8871,2.8891,2.9042,2.907,2.9084,2.8959,2.8961,2.8962,2.9043,0,2.9175,2.9201,2.9152,2.9189,2.9194,2.9126,2.9141,2.9119,2.9089,2.9088,2.9055,2.9055,2.9006,2.8998,2.9012,2.8977,2.9017,2.8971,2.8965,2.8965,2.8969,2.9097,2.9127,2.9205,2.9053,2.9054,2.9056,0,2.9289,2.9276,2.9313,2.927,2.927,2.9284,2.9265,2.9266,2.9239,2.9216,2.9203,2.9158,2.917,2.9116,2.913,2.9099,2.9094,2.9076,2.9078,2.9072,2.9013,2.909,2.9229,2.9239,2.9071,2.907,2.9069,0,2.9402,2.9395,2.9414,2.9404,2.9356,2.9366,2.9346,2.9316,2.931,2.9294,2.9289,2.9276,2.9268,2.9258,2.9209,2.9175,2.9226,2.917,2.9204,2.9205,2.9215,2.9214,2.935,2.922,2.9219,2.9219,2.9219,0,2.9511,2.9535,2.9464,2.9476,2.9499,2.9443,2.9468,2.9441,2.9414,2.9418,2.936,2.9365,2.9302,2.9299,2.9262,2.9275,2.9273,2.9253,2.9241,2.9255,2.9257,2.9248,2.924,2.9222,2.9222,2.9221,2.922,0,2.964,2.9594,2.961,2.9562,2.955,2.9569,2.9527,2.9535,2.9501,2.9506,2.9504,2.9451,2.9444,2.9395,2.9379,2.9353,2.9379,2.936,2.9388,2.938,2.9415,2.9411,2.9546,2.9559,2.9425,2.9427,2.9428,0,2.971,2.9727,2.9679,2.9677,2.966,2.9658,2.9651,2.9595,2.959,2.9558,2.9568,2.9557,2.9544,2.9537,2.9495,2.9481,2.9458,2.9507,2.9455,2.9467,2.9453,2.9451,2.945,2.9516,2.9518,2.952,2.9521,0,2.9838,2.9813,2.9805,2.9788,2.9781,2.9765,2.9746,2.9747,2.9685,2.9682,2.9674,2.9664,2.9645,2.9633,2.9611,2.9589,2.9543,2.9538,2.9544,2.9556,2.9569,2.9557,2.9413,2.9534,2.9532,2.9532,2.9531,2.953,2.9936,2.9946,2.9913,2.9904,2.9884,2.9866,2.9869,2.9835,2.9827,2.9807,2.9775,2.977,2.9739,2.9704,2.9685,2.968,2.9654,2.9664,2.9666,2.9668,2.9673,2.9574,2.9676,2.9676,2.9675,2.9675,2.9675,0,3.0056,3.0031,3.0024,2.9998,2.999,2.9949,2.9925,2.9921,2.9917,2.9892,2.988,2.9868,2.9856,2.9813,2.9795,2.9799,2.9777,2.9795,2.9792,2.9787,2.97,2.9694,2.9813,2.9813,2.9813,2.9813,2.9813,2.9813,3.0118,3.013,3.0101,3.0102,3.0076,3.0071,3.0059,3.0042,3.002,3.001,2.9999,2.9971,2.9938,2.9916,2.9902,2.9889,2.9884,2.9908,2.9888,2.9807,2.9794,2.9781,2.9775,2.9908,2.9909,2.9975,2.9976,2.9976]},{"header":{"parameterUnit":"m.s-1","parameterCategory":1,"la1":30.2991,"la2":30.254,"lo1":-89.0895,"lo2":-89.0444,"dy":0.0017,"dx":0.0017,"nx":28,"ny":28,"refTime":"2023-10-09T09:00:00:Z","depth":0,"parameterNumber":3,"parameterNumberName":"V-component_of_WINDS"},"data":[0,0,0,0,0,0,0,0,0,0,0,0,0,0,0,0,0,0,0,0,0,0,0,0,0,0,0,0,0,0,0,0,0,0,0,0,0,0,0,0,0,0,0,0,0,0,0,0,0,0,0,0,0,0,0,0,0,0,3.3508,3.3508,0,3.3554,3.3554,3.3555,3.3528,3.3527,3.3526,3.3525,3.3569,3.3571,3.3574,0,0,0,0,0,0,0,0,0,0,0,0,0,3.3392,3.3395,3.3508,3.3508,3.3509,3.3554,3.3555,3.3555,3.3529,3.3527,3.3525,3.3524,3.3568,3.3571,3.3574,0,0,0,0,0,0,0,0,0,0,0,0,0,3.3441,3.3395,3.3508,3.3501,3.3501,3.3554,3.3555,3.3555,3.3529,3.3527,3.3525,3.3523,3.3567,3.3571,3.3574,3.3635,0,0,3.3585,3.3587,0,0,0,0,0,0,0,0,3.3438,3.3445,3.3502,3.3502,3.3502,3.3534,3.353,3.3582,3.3529,3.3518,3.3525,3.3522,3.3559,3.3563,3.3576,3.3637,3.3639,3.3586,3.3588,3.3589,3.359,0,0,0,0,0,0,0,3.3435,3.3443,3.3526,3.3502,3.3503,3.3494,3.3499,3.354,3.3549,3.3519,3.3517,3.3523,3.3558,3.3572,3.3576,3.364,3.3586,3.3589,3.3591,3.3592,3.375,3.3752,0,0,0,0,0,0,3.3432,3.344,3.3525,3.3527,3.3465,3.3498,3.3503,3.3525,3.3548,3.355,3.3525,3.3522,3.3567,3.3572,3.3578,3.3648,3.3589,3.3593,3.3595,3.3748,3.375,3.3753,0,0,0,0,0,0,3.343,3.344,3.3523,3.3483,3.3493,3.3502,3.3527,3.3527,3.3541,3.3553,3.3554,3.3538,3.3566,3.3573,3.362,3.3649,3.3594,3.3598,3.3745,3.3749,3.3751,3.379,0,0,0,0,0,0,3.3427,3.3439,3.3464,3.3484,3.3496,3.3566,3.3529,3.3529,3.3548,3.3544,3.3565,3.3566,3.3565,3.3615,3.3624,3.3653,3.36,3.3743,3.3747,3.375,3.3786,3.3794,3.38,0,0,0,0,0,3.3423,3.3473,3.3465,3.3476,3.3526,3.3568,3.3574,3.3572,3.355,3.3574,3.358,3.3566,3.3645,3.362,3.363,3.366,3.3741,3.3746,3.375,3.3783,3.3792,3.38,0,0,0,0,0,0,3.3456,3.3476,3.3467,3.3526,3.3545,3.3563,3.3593,3.3583,3.3608,3.3603,3.3599,3.3604,3.3652,3.3662,3.3634,3.3719,3.3689,3.3696,3.3711,3.372,3.3727,3.3723,3.3603,0,0,0,0,0,3.347,3.3503,3.3518,3.3568,3.3579,3.3584,3.3602,3.3599,3.3618,3.3626,3.3637,3.3655,3.3684,3.3703,3.373,3.3788,3.379,3.3813,3.382,3.3826,3.3831,3.3859,3.3869,3.3768,3.3768,3.3767,0,0,3.3499,3.3514,3.3535,3.3575,3.359,3.3622,3.3591,3.3628,3.3651,3.3631,3.3676,3.3685,3.3705,3.3757,3.378,3.3766,3.386,3.3832,3.3837,3.3839,3.3865,3.3874,3.3883,3.3771,3.377,3.377,0,0,3.3569,3.3585,3.3627,3.3642,3.3664,3.3667,3.3677,3.3696,3.3701,3.3746,3.3731,3.3758,3.3809,3.3823,3.3837,3.3909,3.3895,3.3918,3.3955,3.3982,3.399,3.3997,3.402,3.4029,3.3924,3.3924,3.3924,0,3.3602,3.3651,3.3649,3.3686,3.3702,3.3687,3.3727,3.3742,3.3772,3.3783,3.3767,3.3828,3.3841,3.3894,3.3911,3.3924,3.3933,3.3915,3.399,3.3997,3.4003,3.4025,3.4034,3.3926,3.3926,3.3926,3.3926,0,3.3689,3.3724,3.3755,3.3783,3.3804,3.3843,3.3845,3.3865,3.386,3.3864,3.3908,3.3923,3.3952,3.3965,3.396,3.4017,3.4006,3.399,3.396,3.4015,3.4035,3.4044,3.393,3.3929,3.3928,3.3928,0,0,3.3781,3.3807,3.3818,3.3829,3.3852,3.3878,3.3915,3.3943,3.3959,3.398,3.4009,3.4051,3.4036,3.4051,3.4048,3.4072,3.4125,3.4052,3.4053,3.4063,3.4184,3.4194,3.4204,3.4116,3.4118,3.4119,3.4181,0,3.3849,3.3914,3.3912,3.3972,3.4001,3.3986,3.4018,3.4034,3.4039,3.4063,3.4068,3.4097,3.4076,3.4084,3.4108,3.4113,3.4148,3.4109,3.4141,3.4142,3.4133,3.4215,3.4227,3.4285,3.419,3.4191,3.4192,0,3.3938,3.3961,3.4023,3.4039,3.4051,3.408,3.4104,3.4129,3.4146,3.4147,3.4164,3.4156,3.4191,3.4162,3.4208,3.4182,3.4195,3.4199,3.4201,3.4202,3.4169,3.4215,3.4303,3.4311,3.4205,3.4204,3.4203,0,3.3994,3.4041,3.4083,3.4094,3.4115,3.4134,3.4143,3.4159,3.4175,3.4196,3.4206,3.4231,3.4244,3.4263,3.4261,3.424,3.4307,3.4278,3.4307,3.4307,3.432,3.4319,3.4408,3.4333,3.4333,3.4333,3.4332,0,3.4069,3.4107,3.4108,3.4134,3.4175,3.4173,3.4213,3.422,3.4234,3.4259,3.4248,3.4272,3.4269,3.4293,3.4292,3.4329,3.4336,3.4336,3.4335,3.4336,3.4335,3.4342,3.4337,3.4335,3.4334,3.4334,3.4334,0,3.4138,3.4141,3.4185,3.4201,3.4205,3.4235,3.4247,3.427,3.4274,3.4306,3.4313,3.4318,3.4345,3.4346,3.4377,3.4376,3.442,3.4416,3.4414,3.4412,3.444,3.4436,3.4535,3.4546,3.4466,3.4467,3.4468,0,3.4184,3.4213,3.423,3.4247,3.4257,3.4284,3.43,3.4298,3.4314,3.4335,3.4355,3.4382,3.4402,3.4446,3.4451,3.4474,3.4468,3.4501,3.4471,3.447,3.4465,3.4462,3.4464,3.4506,3.4507,3.4508,3.4509,0,3.4265,3.4264,3.4288,3.4312,3.4331,3.435,3.4367,3.4381,3.4381,3.44,3.4427,3.4443,3.4474,3.4499,3.4521,3.4529,3.4518,3.4518,3.4525,3.4525,3.4522,3.4521,3.4427,3.4515,3.4515,3.4514,3.4514,3.4513,3.4322,3.4345,3.436,3.4387,3.4399,3.4415,3.4437,3.4443,3.4466,3.4491,3.4488,3.4518,3.4532,3.456,3.457,3.4592,3.458,3.4592,3.4594,3.4596,3.4598,3.452,3.4597,3.4596,3.4596,3.4596,3.4596,0,3.4399,3.4408,3.4432,3.4456,3.4476,3.4465,3.4483,3.4499,3.4526,3.4541,3.4561,3.4591,3.4614,3.4621,3.4644,3.466,3.4655,3.4666,3.4663,3.4664,3.4609,3.4599,3.4669,3.4669,3.4669,3.4669,3.4669,3.4669,3.4441,3.4479,3.448,3.4524,3.4532,3.4561,3.4572,3.4586,3.4597,3.4631,3.465,3.4655,3.4666,3.4689,3.4709,3.471,3.4718,3.473,3.4729,3.4676,3.4669,3.4662,3.4652,3.4732,3.4732,3.4782,3.4783,3.4783]}]]